Weather History for EIDW - September, 2013

Change the Weather History Date:

Wednesday, September 25, 2013

  Actual Average Record
Temperature  
Mean Temperature 57 °F -  
Max Temperature 59 °F 58 °F 66 °F (2004)
Min Temperature 55 °F 46 °F 37 °F (2010)
Degree Days  
Heating Degree Days 8    
Growing Degree Days 7 (Base 50)    
Moisture  
Dew Point 56 °F    
Average Humidity 98    
Maximum Humidity 100    
Minimum Humidity 94    
Precipitation  
Precipitation 0.04 in 0.09 in - ()
Sea Level Pressure  
Sea Level Pressure 29.89 in    
Wind  
Wind Speed 5 mph ()    
Max Wind Speed 10 mph    
Max Gust Speed -    
Visibility 1.6 miles    
Events Fog , Rain    
Averages and records for this station are not official NWS values.
T = Trace of Precipitation, MM = Missing Value Source: Averaged Metar Reports

Daily Weather History Graph

Daily Weather History Graph

Search for Another Location

Airport or City:

Trip Planner

Search our weather history database for the weather conditions in past years. The results will help you decide how hot, cold, wet, or windy it might be!

Date:

Astronomy

Sep. 25, 2013 Rise Set
Actual Time 7:16 AM IST 7:16 PM IST
Civil Twilight 6:41 AM IST 7:50 PM IST
Nautical Twilight 6:00 AM IST 8:31 PM IST
Astronomical Twilight 5:17 AM IST 9:14 PM IST
Moon 10:26 PM IST (9/25) 1:55 PM IST (9/25)
Length of Visible Light 13h 09m
Length of Day
11h 59m
Waning Gibbous, 66% of the Moon is Illuminated
Sep 25
Waning Gibbous
Sep 27
Last Quarter
Oct 5
New
Oct 12
First Quarter
Oct 19
Full

Hourly Weather History & Observations

Time (IST) Temp. Dew Point Humidity Pressure Visibility Wind Dir Wind Speed Gust Speed Precip Events Conditions
12:00 AM 55.4 °F 55.4 °F 100% 29.92 in 0.3 mi NNE 5.8 mph - N/A Fog Fog
12:30 AM 55.4 °F 55.4 °F 100% 29.92 in 0.4 mi East 3.5 mph - N/A Fog Fog
1:00 AM 56 °F 56 °F 99% 29.92 in 0 mi ESE 6.7 mph - - Fog Heavy Fog
1:00 AM 55.4 °F 55.4 °F 100% 29.92 in 0.4 mi ESE 5.8 mph - N/A Fog Fog
1:30 AM 55.4 °F 55.4 °F 100% 29.92 in 0.4 mi ESE 4.6 mph - N/A Fog Fog
2:00 AM 55.4 °F 55.4 °F 100% 29.92 in 0.3 mi SE 3.5 mph - N/A Fog Fog
2:30 AM 57.2 °F 57.2 °F 100% 29.92 in 0.3 mi South 4.6 mph - N/A Fog Fog
3:00 AM 57.2 °F 55.4 °F 94% 29.89 in 0.2 mi NE 4.6 mph - N/A Fog Fog
3:30 AM 55.4 °F 55.4 °F 100% 29.89 in 0.2 mi Variable 2.3 mph - N/A Fog Fog
4:00 AM 55.4 °F 55.4 °F 100% 29.89 in 0.2 mi NNE 3.5 mph - N/A Fog Fog
4:30 AM 55.4 °F 55.4 °F 100% 29.89 in 0.2 mi East 2.3 mph - N/A Fog Fog
5:00 AM 55.4 °F 55.4 °F 100% 29.86 in 0.2 mi NE 2.3 mph - N/A Fog Fog
5:30 AM 55.4 °F 55.4 °F 100% 29.86 in 0.2 mi NE 4.6 mph - N/A Fog Fog
6:00 AM 55.4 °F 55.4 °F 100% 29.86 in 0.2 mi NE 3.5 mph - N/A Fog Fog
6:30 AM 55.4 °F 55.4 °F 100% 29.86 in 0.5 mi NE 5.8 mph - N/A Fog Fog
7:00 AM 56 °F 56 °F 98% 29.88 in 1 mi NE 6.7 mph - - Rain Drizzle
7:00 AM 55.4 °F 55.4 °F 100% 29.86 in 0.7 mi NE 6.9 mph - N/A   Drizzle
7:30 AM 55.4 °F 55.4 °F 100% 29.86 in 1.1 mi NE 4.6 mph - N/A   Light Drizzle
8:00 AM 55.4 °F 55.4 °F 100% 29.86 in 0.7 mi NE 4.6 mph - N/A   Light Drizzle
8:30 AM 55.4 °F 55.4 °F 100% 29.86 in 0.5 mi ENE 4.6 mph - N/A Fog Fog
9:00 AM 57.2 °F 57.2 °F 100% 29.86 in 0.5 mi East 4.6 mph - N/A Fog Fog
9:30 AM 57.2 °F 57.2 °F 100% 29.86 in 0.2 mi East 5.8 mph - N/A Fog Fog
10:00 AM 57.2 °F 57.2 °F 100% 29.89 in 0.2 mi East 5.8 mph - N/A Fog Fog
10:30 AM 57.2 °F 57.2 °F 100% 29.89 in 0.2 mi ENE 5.8 mph - N/A Fog Fog
11:00 AM 57.2 °F 57.2 °F 100% 29.89 in 0.3 mi ENE 4.6 mph - N/A Fog Fog
11:30 AM 57.2 °F 57.2 °F 100% 29.89 in 0.7 mi Variable 3.5 mph - N/A   Mostly Cloudy
12:00 PM 57.2 °F 57.2 °F 100% 29.89 in 0.4 mi Variable 3.5 mph - N/A Fog Fog
12:30 PM 59.0 °F 57.2 °F 94% 29.89 in 0.9 mi East 4.6 mph - N/A   Mostly Cloudy
1:00 PM 58 °F 57 °F 97% 29.89 in 2 mi ENE 6.7 mph - - Fog Light Fog
1:00 PM 57.2 °F 57.2 °F 100% 29.89 in 1.9 mi ENE 5.8 mph - N/A   Mostly Cloudy
1:30 PM 59.0 °F 57.2 °F 94% 29.89 in 1.6 mi ENE 6.9 mph - N/A   Mostly Cloudy
2:00 PM 59.0 °F 57.2 °F 94% 29.89 in 1.9 mi East 4.6 mph - N/A   Mostly Cloudy
2:30 PM 59.0 °F 57.2 °F 94% 29.89 in 1.9 mi East 5.8 mph - N/A   Mostly Cloudy
3:00 PM 59.0 °F 57.2 °F 94% 29.89 in 1.2 mi ENE 6.9 mph - N/A   Mostly Cloudy
3:30 PM 57.2 °F 55.4 °F 94% 29.89 in 1.6 mi ENE 10.4 mph - N/A   Mostly Cloudy
4:00 PM 57.2 °F 55.4 °F 94% 29.86 in 1.9 mi ENE 9.2 mph - N/A   Mostly Cloudy
4:30 PM 57.2 °F 55.4 °F 94% 29.86 in 2.8 mi ENE 9.2 mph - N/A   Mostly Cloudy
5:30 PM 57.2 °F 55.4 °F 94% 29.86 in 2.2 mi East 8.1 mph - N/A   Mostly Cloudy
6:00 PM 57.2 °F 55.4 °F 94% 29.89 in 2.8 mi East 6.9 mph - N/A   Mostly Cloudy
6:30 PM 57.2 °F 55.4 °F 94% 29.89 in 2.8 mi ENE 8.1 mph - N/A   Light Drizzle
7:00 PM 56 °F 55 °F 94% 29.90 in 2 mi East 6.7 mph - - Rain Light Drizzle
7:00 PM 55.4 °F 55.4 °F 100% 29.89 in 2.5 mi East 5.8 mph - N/A   Mostly Cloudy
7:30 PM 55.4 °F 55.4 °F 100% 29.89 in 4.3 mi East 6.9 mph - N/A   Mostly Cloudy
8:00 PM 55.4 °F 53.6 °F 94% 29.89 in 5.6 mi East 6.9 mph - N/A   Mostly Cloudy
8:30 PM 55.4 °F 53.6 °F 94% 29.89 in 4.3 mi East 6.9 mph - N/A   Mostly Cloudy
9:00 PM 55.4 °F 55.4 °F 100% 29.89 in 4.3 mi East 8.1 mph - N/A   Mostly Cloudy
9:30 PM 55.4 °F 55.4 °F 100% 29.92 in 4.3 mi ENE 6.9 mph - N/A   Light Drizzle
10:00 PM 55.4 °F 55.4 °F 100% 29.92 in 4.3 mi ENE 6.9 mph - N/A   Light Drizzle
10:30 PM 55.4 °F 55.4 °F 100% 29.92 in 4.3 mi ENE 8.1 mph - N/A   Light Drizzle
11:00 PM 55.4 °F 55.4 °F 100% 29.92 in 3.7 mi ENE 9.2 mph - N/A   Light Drizzle
11:30 PM 55.4 °F 55.4 °F 100% 29.92 in 3.7 mi NE 6.9 mph - N/A   Mostly Cloudy